Time,TemperatureF,DewpointF,PressureIn,WindDirection,WindDirectionDegrees,WindSpeedMPH,WindSpeedGustMPH,Humidity,HourlyPrecipIn,Conditions,Clouds,dailyrainin,SoftwareType,DateUTC
2013-01-29 00:01:00,43.2,40.7,29.98,SSE,157,0.0,0.0,91,0.00,,,0.00,WUHU21623XXSP,2013-01-29 05:01:00,
2013-01-29 00:02:00,43.2,40.7,29.98,SSE,157,0.0,0.0,91,0.00,,,0.00,WUHU21623XXSP,2013-01-29 05:02:00,
2013-01-29 00:07:00,43.3,40.9,29.97,SSE,157,0.0,0.0,91,0.00,,,0.00,WUHU21623XXSP,2013-01-29 05:07:00,
2013-01-29 00:12:00,43.5,41.1,29.98,SSE,157,0.0,0.0,91,0.00,,,0.00,WUHU21623XXSP,2013-01-29 05:12:00,
2013-01-29 00:17:00,43.7,41.3,29.98,SSE,157,0.0,0.0,91,0.00,,,0.00,WUHU21623XXSP,2013-01-29 05:17:00,
2013-01-29 00:22:00,43.9,41.5,29.97,SSE,157,0.0,0.0,91,0.00,,,0.00,WUHU21623XXSP,2013-01-29 05:22:00,
2013-01-29 00:27:00,43.9,41.5,29.97,SSE,157,0.0,0.0,91,0.00,,,0.00,WUHU21623XXSP,2013-01-29 05:27:00,
2013-01-29 00:32:00,43.9,41.5,29.97,SSE,157,0.0,0.0,91,0.00,,,0.00,WUHU21623XXSP,2013-01-29 05:32:00,
2013-01-29 00:37:00,44.1,41.6,29.97,SSE,157,0.0,0.0,91,0.00,,,0.00,WUHU21623XXSP,2013-01-29 05:37:00,
2013-01-29 00:42:00,44.2,41.8,29.97,SSE,157,0.0,0.0,91,0.00,,,0.00,WUHU21623XXSP,2013-01-29 05:42:00,
2013-01-29 00:47:00,44.4,42.0,29.96,SSE,157,0.0,0.0,91,0.00,,,0.00,WUHU21623XXSP,2013-01-29 05:47:00,
2013-01-29 00:52:00,44.4,42.0,29.96,SSE,157,0.0,0.0,91,0.00,,,0.00,WUHU21623XXSP,2013-01-29 05:52:00,
2013-01-29 00:57:00,44.2,41.8,29.96,SSE,157,0.0,0.0,91,0.00,,,0.00,WUHU21623XXSP,2013-01-29 05:57:00,
2013-01-29 01:02:00,44.2,41.8,29.96,SSE,157,0.0,0.0,91,0.00,,,0.00,WUHU21623XXSP,2013-01-29 06:02:00,
2013-01-29 01:07:00,44.1,41.6,29.96,SSE,157,0.0,0.0,91,0.00,,,0.00,WUHU21623XXSP,2013-01-29 06:07:00,
2013-01-29 01:12:00,44.1,41.6,29.96,SSE,157,0.0,0.0,91,0.00,,,0.00,WUHU21623XXSP,2013-01-29 06:12:00,
2013-01-29 01:17:00,43.9,41.5,29.96,SSE,157,0.0,0.0,91,0.00,,,0.00,WUHU21623XXSP,2013-01-29 06:17:00,
2013-01-29 01:22:00,43.9,41.5,29.95,SSE,157,0.0,0.0,91,0.00,,,0.00,WUHU21623XXSP,2013-01-29 06:22:00,
2013-01-29 01:27:00,43.9,41.5,29.94,SSE,157,0.0,0.0,91,0.00,,,0.00,WUHU21623XXSP,2013-01-29 06:27:00,
2013-01-29 01:32:00,43.9,41.5,29.95,SSE,157,0.0,0.0,91,0.00,,,0.00,WUHU21623XXSP,2013-01-29 06:32:00,
2013-01-29 01:37:00,44.1,41.6,29.95,SSE,157,0.0,0.0,91,0.00,,,0.00,WUHU21623XXSP,2013-01-29 06:37:00,
2013-01-29 01:42:00,44.1,41.6,29.94,SSE,157,0.0,0.0,91,0.00,,,0.00,WUHU21623XXSP,2013-01-29 06:42:00,
2013-01-29 01:47:00,44.1,41.6,29.94,SSE,157,0.0,0.0,91,0.00,,,0.00,WUHU21623XXSP,2013-01-29 06:47:00,
2013-01-29 01:52:00,44.2,41.8,29.94,SSE,157,0.0,0.0,91,0.00,,,0.00,WUHU21623XXSP,2013-01-29 06:52:00,
2013-01-29 01:57:00,44.2,42.1,29.94,SSE,157,0.0,0.0,92,0.00,,,0.00,WUHU21623XXSP,2013-01-29 06:57:00,
2013-01-29 02:02:00,44.4,42.3,29.94,SSE,157,0.0,0.0,92,0.00,,,0.00,WUHU21623XXSP,2013-01-29 07:02:00,
2013-01-29 02:07:00,44.6,42.4,29.93,SSE,157,0.0,0.0,92,0.00,,,0.00,WUHU21623XXSP,2013-01-29 07:07:00,
2013-01-29 02:12:00,44.8,42.6,29.93,SSE,157,0.0,0.0,92,0.00,,,0.00,WUHU21623XXSP,2013-01-29 07:12:00,
2013-01-29 02:17:00,45.0,42.8,29.93,SSE,157,0.0,0.0,92,0.00,,,0.00,WUHU21623XXSP,2013-01-29 07:17:00,
2013-01-29 02:22:00,45.1,43.0,29.93,SSE,157,0.0,0.0,92,0.00,,,0.00,WUHU21623XXSP,2013-01-29 07:22:00,
2013-01-29 02:27:00,45.5,43.3,29.93,SSE,157,0.0,0.0,92,0.00,,,0.00,WUHU21623XXSP,2013-01-29 07:27:00,
2013-01-29 02:32:00,45.7,43.5,29.93,SSE,157,0.0,0.0,92,0.00,,,0.00,WUHU21623XXSP,2013-01-29 07:32:00,
2013-01-29 02:37:00,46.0,43.9,29.93,SSE,157,0.0,0.0,92,0.00,,,0.00,WUHU21623XXSP,2013-01-29 07:37:00,
2013-01-29 02:42:00,46.2,44.1,29.93,SSE,157,0.0,0.0,92,0.00,,,0.00,WUHU21623XXSP,2013-01-29 07:42:00,
2013-01-29 02:47:00,46.2,44.1,29.92,SSE,157,0.0,0.0,92,0.00,,,0.00,WUHU21623XXSP,2013-01-29 07:47:00,
2013-01-29 02:52:00,46.6,44.4,29.93,SSE,157,0.0,0.0,92,0.00,,,0.00,WUHU21623XXSP,2013-01-29 07:52:00,
2013-01-29 02:57:00,46.6,44.4,29.92,SSE,157,0.0,0.0,92,0.00,,,0.00,WUHU21623XXSP,2013-01-29 07:57:00,
2013-01-29 03:02:00,46.8,44.6,29.92,SSE,157,0.0,0.0,92,0.00,,,0.00,WUHU21623XXSP,2013-01-29 08:02:00,
2013-01-29 03:07:00,46.9,44.8,29.92,SW,225,0.0,0.0,92,0.00,,,0.00,WUHU21623XXSP,2013-01-29 08:07:00,
2013-01-29 03:12:00,46.9,44.8,29.92,SW,225,0.0,0.0,92,0.00,,,0.00,WUHU21623XXSP,2013-01-29 08:12:00,
2013-01-29 03:17:00,46.9,44.8,29.92,SSW,202,0.0,0.0,92,0.00,,,0.00,WUHU21623XXSP,2013-01-29 08:17:00,
2013-01-29 03:22:00,46.9,44.8,29.92,South,180,0.0,0.0,92,0.00,,,0.00,WUHU21623XXSP,2013-01-29 08:22:00,
2013-01-29 03:27:00,47.1,45.0,29.91,South,180,0.0,0.0,92,0.00,,,0.00,WUHU21623XXSP,2013-01-29 08:27:00,
2013-01-29 03:32:00,47.1,45.0,29.91,SSW,202,0.0,0.0,92,0.00,,,0.00,WUHU21623XXSP,2013-01-29 08:32:00,
2013-01-29 03:37:00,47.5,45.3,29.90,SSE,157,1.3,1.3,92,0.00,,,0.00,WUHU21623XXSP,2013-01-29 08:37:00,
2013-01-29 03:42:00,47.7,45.5,29.90,SSE,157,0.0,1.3,92,0.00,,,0.00,WUHU21623XXSP,2013-01-29 08:42:00,
2013-01-29 03:47:00,47.8,45.7,29.90,SSE,157,0.0,1.3,92,0.00,,,0.00,WUHU21623XXSP,2013-01-29 08:47:00,
2013-01-29 03:52:00,47.8,45.7,29.90,SSE,157,0.0,0.0,92,0.00,,,0.00,WUHU21623XXSP,2013-01-29 08:52:00,
2013-01-29 03:57:00,47.8,45.7,29.90,SSE,157,0.0,0.0,92,0.00,,,0.00,WUHU21623XXSP,2013-01-29 08:57:00,
2013-01-29 04:02:00,48.0,45.9,29.90,SSE,157,0.0,0.0,92,0.00,,,0.00,WUHU21623XXSP,2013-01-29 09:02:00,
2013-01-29 04:10:00,48.0,45.9,29.90,SSE,157,0.0,0.0,92,0.00,,,0.00,WUHU21623XXSP,2013-01-29 09:10:00,
2013-01-29 04:15:00,48.4,46.2,29.90,SW,225,1.3,1.3,92,0.00,,,0.00,WUHU21623XXSP,2013-01-29 09:15:00,
2013-01-29 04:20:00,48.4,46.2,29.90,SSW,202,0.0,1.3,92,0.00,,,0.00,WUHU21623XXSP,2013-01-29 09:20:00,
2013-01-29 04:25:00,48.7,46.5,29.89,SSE,157,1.8,1.8,92,0.00,,,0.00,WUHU21623XXSP,2013-01-29 09:25:00,
2013-01-29 04:30:00,48.7,46.5,29.88,SSE,157,0.0,1.8,92,0.00,,,0.00,WUHU21623XXSP,2013-01-29 09:30:00,
2013-01-29 04:35:00,48.7,46.5,29.88,WSW,247,0.0,0.0,92,0.00,,,0.00,WUHU21623XXSP,2013-01-29 09:35:00,
2013-01-29 04:40:00,49.1,46.9,29.88,SW,225,0.5,1.1,92,0.00,,,0.00,WUHU21623XXSP,2013-01-29 09:40:00,
2013-01-29 04:45:00,49.3,47.0,29.88,SSE,157,0.0,1.1,92,0.00,,,0.00,WUHU21623XXSP,2013-01-29 09:45:00,
2013-01-29 04:51:00,49.6,47.4,29.88,SSW,202,5.1,5.1,92,0.00,,,0.00,WUHU21623XXSP,2013-01-29 09:51:00,
2013-01-29 04:56:00,49.6,47.4,29.88,SSE,157,0.0,5.1,92,0.00,,,0.00,WUHU21623XXSP,2013-01-29 09:56:00,
2013-01-29 05:01:00,49.6,47.4,29.87,SE,135,0.0,5.1,92,0.00,,,0.00,WUHU21623XXSP,2013-01-29 10:01:00,
2013-01-29 05:10:00,49.6,47.4,29.87,SE,135,0.0,0.0,92,0.00,,,0.00,WUHU21623XXSP,2013-01-29 10:10:00,
2013-01-29 05:15:00,49.6,47.4,29.87,SSW,202,0.0,0.0,92,0.00,,,0.00,WUHU21623XXSP,2013-01-29 10:15:00,
2013-01-29 05:20:00,49.6,47.4,29.87,WSW,247,0.9,0.9,92,0.00,,,0.00,WUHU21623XXSP,2013-01-29 10:20:00,
2013-01-29 05:25:00,49.6,47.4,29.87,SE,135,1.1,1.1,92,0.00,,,0.00,WUHU21623XXSP,2013-01-29 10:25:00,
2013-01-29 05:30:00,49.6,47.4,29.87,SW,225,0.0,1.1,92,0.00,,,0.00,WUHU21623XXSP,2013-01-29 10:30:00,
2013-01-29 05:35:00,49.6,47.4,29.86,SSW,202,0.0,0.0,92,0.00,,,0.00,WUHU21623XXSP,2013-01-29 10:35:00,
2013-01-29 05:40:00,49.6,47.4,29.87,SW,225,0.0,0.0,92,0.00,,,0.00,WUHU21623XXSP,2013-01-29 10:40:00,
2013-01-29 05:45:00,49.5,47.2,29.87,West,270,1.3,1.3,92,0.00,,,0.00,WUHU21623XXSP,2013-01-29 10:45:00,
2013-01-29 05:50:00,49.6,47.4,29.86,SW,225,2.7,2.7,92,0.00,,,0.00,WUHU21623XXSP,2013-01-29 10:50:00,
2013-01-29 05:55:00,49.6,47.4,29.86,SW,225,1.8,2.7,92,0.00,,,0.00,WUHU21623XXSP,2013-01-29 10:55:00,
2013-01-29 06:00:00,49.6,47.4,29.86,WSW,247,0.0,2.2,92,0.00,,,0.00,WUHU21623XXSP,2013-01-29 11:00:00,
2013-01-29 06:05:00,49.6,47.4,29.86,WSW,247,0.0,2.2,92,0.00,,,0.00,WUHU21623XXSP,2013-01-29 11:05:00,
2013-01-29 06:10:00,49.6,47.4,29.86,WSW,247,0.0,0.0,92,0.00,,,0.00,WUHU21623XXSP,2013-01-29 11:10:00,
2013-01-29 06:15:00,49.8,47.5,29.87,SW,225,2.9,2.9,92,0.00,,,0.00,WUHU21623XXSP,2013-01-29 11:15:00,
2013-01-29 06:20:00,49.8,47.5,29.86,SW,225,3.1,3.1,92,0.00,,,0.00,WUHU21623XXSP,2013-01-29 11:20:00,
2013-01-29 06:25:00,49.8,47.5,29.86,SW,225,0.0,3.1,92,0.00,,,0.00,WUHU21623XXSP,2013-01-29 11:25:00,
2013-01-29 06:30:00,50.2,47.9,29.87,SW,225,4.0,4.0,92,0.00,,,0.00,WUHU21623XXSP,2013-01-29 11:30:00,
2013-01-29 06:35:00,50.2,47.9,29.87,SSW,202,4.0,4.0,92,0.00,,,0.00,WUHU21623XXSP,2013-01-29 11:35:00,
2013-01-29 06:40:00,50.2,48.2,29.86,WSW,247,4.0,4.0,93,0.00,,,0.00,WUHU21623XXSP,2013-01-29 11:40:00,
2013-01-29 06:45:00,50.5,48.5,29.86,SW,225,1.1,4.0,93,0.00,,,0.00,WUHU21623XXSP,2013-01-29 11:45:00,
2013-01-29 06:50:00,50.5,48.5,29.86,SSE,157,0.0,4.0,93,0.00,,,0.00,WUHU21623XXSP,2013-01-29 11:50:00,
2013-01-29 06:55:00,50.7,48.7,29.85,SSE,157,0.0,0.0,93,0.00,,,0.00,WUHU21623XXSP,2013-01-29 11:55:00,
2013-01-29 07:00:00,50.7,48.7,29.85,SW,225,2.4,2.5,93,0.00,,,0.00,WUHU21623XXSP,2013-01-29 12:00:00,
2013-01-29 07:05:00,50.7,48.7,29.86,SW,225,5.1,5.1,93,0.00,,,0.00,WUHU21623XXSP,2013-01-29 12:05:00,
2013-01-29 07:10:00,50.9,48.9,29.85,West,270,4.5,5.1,93,0.00,,,0.00,WUHU21623XXSP,2013-01-29 12:10:00,
2013-01-29 07:15:00,51.1,49.1,29.85,WNW,292,7.8,7.8,93,0.00,,,0.00,WUHU21623XXSP,2013-01-29 12:15:00,
2013-01-29 07:20:00,51.3,49.2,29.85,SW,225,1.1,7.8,93,0.00,,,0.00,WUHU21623XXSP,2013-01-29 12:20:00,
2013-01-29 07:25:00,51.3,49.2,29.85,SW,225,2.7,7.8,93,0.00,,,0.00,WUHU21623XXSP,2013-01-29 12:25:00,
2013-01-29 07:30:00,51.4,49.4,29.86,WSW,244,5.7,6.5,93,0.00,,,0.00,WUHU21623XXSP,2013-01-29 12:30:00,
2013-01-29 07:35:00,51.4,49.4,29.86,WSW,247,6.3,6.5,93,0.00,,,0.00,WUHU21623XXSP,2013-01-29 12:35:00,
2013-01-29 07:40:00,51.6,49.6,29.86,WNW,292,6.5,6.5,93,0.00,,,0.00,WUHU21623XXSP,2013-01-29 12:40:00,
2013-01-29 07:45:00,51.6,49.6,29.86,WNW,287,5.1,6.5,93,0.00,,,0.00,WUHU21623XXSP,2013-01-29 12:45:00,
2013-01-29 07:51:00,51.8,49.8,29.86,SW,225,6.9,6.9,93,0.00,,,0.00,WUHU21623XXSP,2013-01-29 12:51:00,
2013-01-29 07:56:00,51.8,49.8,29.85,SSW,202,7.6,7.6,93,0.00,,,0.00,WUHU21623XXSP,2013-01-29 12:56:00,
2013-01-29 08:02:00,52.0,50.0,29.85,WSW,247,6.6,7.6,93,0.00,,,0.00,WUHU21623XXSP,2013-01-29 13:02:00,
2013-01-29 08:07:00,52.0,50.0,29.85,North,0,1.6,7.6,93,0.00,,,0.00,WUHU21623XXSP,2013-01-29 13:07:00,
2013-01-29 08:12:00,52.0,50.0,29.85,North,0,1.6,1.8,93,0.00,,,0.00,WUHU21623XXSP,2013-01-29 13:12:00,
2013-01-29 08:17:00,52.2,50.1,29.85,SW,225,5.4,5.4,93,0.00,,,0.00,WUHU21623XXSP,2013-01-29 13:17:00,
2013-01-29 08:22:00,52.2,50.1,29.85,SW,225,9.2,9.2,93,0.00,,,0.00,WUHU21623XXSP,2013-01-29 13:22:00,
2013-01-29 08:27:00,52.2,50.1,29.84,WSW,247,0.0,9.2,93,0.00,,,0.00,WUHU21623XXSP,2013-01-29 13:27:00,
2013-01-29 08:32:00,52.2,50.1,29.85,WSW,247,2.5,9.2,93,0.00,,,0.00,WUHU21623XXSP,2013-01-29 13:32:00,
2013-01-29 08:37:00,52.2,50.1,29.85,NNW,337,8.3,8.3,93,0.00,,,0.00,WUHU21623XXSP,2013-01-29 13:37:00,
2013-01-29 08:42:00,52.3,50.3,29.85,WSW,247,0.0,8.3,93,0.00,,,0.00,WUHU21623XXSP,2013-01-29 13:42:00,
2013-01-29 08:47:00,52.3,50.3,29.85,SW,225,0.0,0.0,93,0.00,,,0.00,WUHU21623XXSP,2013-01-29 13:47:00,
2013-01-29 08:52:00,52.3,50.3,29.84,South,180,0.7,0.7,93,0.00,,,0.00,WUHU21623XXSP,2013-01-29 13:52:00,
2013-01-29 08:57:00,52.3,50.3,29.84,WSW,247,0.0,0.7,93,0.00,,,0.00,WUHU21623XXSP,2013-01-29 13:57:00,
2013-01-29 09:02:00,52.3,50.3,29.84,SSW,202,2.5,4.5,93,0.00,,,0.00,WUHU21623XXSP,2013-01-29 14:02:00,
2013-01-29 09:07:00,52.3,50.3,29.84,SSW,202,2.5,4.5,93,0.00,,,0.00,WUHU21623XXSP,2013-01-29 14:07:00,
2013-01-29 09:12:00,52.3,50.3,29.84,SW,225,0.0,2.5,93,0.00,,,0.00,WUHU21623XXSP,2013-01-29 14:12:00,
2013-01-29 09:17:00,52.3,50.3,29.84,South,180,1.6,1.6,93,0.00,,,0.00,WUHU21623XXSP,2013-01-29 14:17:00,
2013-01-29 09:22:00,52.5,50.5,29.84,SW,225,4.0,4.0,93,0.00,,,0.00,WUHU21623XXSP,2013-01-29 14:22:00,
2013-01-29 09:27:00,52.7,50.7,29.85,SW,225,3.4,4.0,93,0.00,,,0.00,WUHU21623XXSP,2013-01-29 14:27:00,
2013-01-29 09:32:00,52.9,50.9,29.85,SW,225,3.4,3.4,93,0.00,,,0.00,WUHU21623XXSP,2013-01-29 14:32:00,
2013-01-29 09:37:00,53.2,51.2,29.84,SW,225,5.4,5.4,93,0.00,,,0.00,WUHU21623XXSP,2013-01-29 14:37:00,
2013-01-29 09:42:00,53.2,51.2,29.84,SSW,202,0.0,5.4,93,0.00,,,0.00,WUHU21623XXSP,2013-01-29 14:42:00,
2013-01-29 09:47:00,53.2,51.2,29.84,WSW,247,1.8,5.4,93,0.00,,,0.00,WUHU21623XXSP,2013-01-29 14:47:00,
2013-01-29 09:52:00,53.2,51.2,29.85,WSW,247,2.2,2.2,93,0.00,,,0.00,WUHU21623XXSP,2013-01-29 14:52:00,
2013-01-29 09:57:00,53.2,51.2,29.85,SW,225,0.0,2.2,93,0.00,,,0.00,WUHU21623XXSP,2013-01-29 14:57:00,
2013-01-29 10:02:00,53.2,51.2,29.85,SW,225,0.0,2.2,93,0.00,,,0.00,WUHU21623XXSP,2013-01-29 15:02:00,
2013-01-29 10:07:00,53.2,51.2,29.84,SSW,202,0.0,0.0,93,0.00,,,0.00,WUHU21623XXSP,2013-01-29 15:07:00,
2013-01-29 10:12:00,53.1,51.0,29.84,SSW,202,0.0,0.0,93,0.00,,,0.00,WUHU21623XXSP,2013-01-29 15:12:00,
2013-01-29 10:17:00,52.9,50.9,29.85,SW,225,0.0,1.1,93,0.00,,,0.00,WUHU21623XXSP,2013-01-29 15:17:00,
2013-01-29 10:22:00,52.9,50.9,29.85,SW,225,0.0,1.1,93,0.00,,,0.00,WUHU21623XXSP,2013-01-29 15:22:00,
2013-01-29 10:27:00,52.9,50.9,29.84,SW,225,0.0,0.0,93,0.00,,,0.00,WUHU21623XXSP,2013-01-29 15:27:00,
2013-01-29 10:32:00,52.9,50.9,29.84,SE,135,0.0,0.0,93,0.00,,,0.00,WUHU21623XXSP,2013-01-29 15:32:00,
2013-01-29 10:37:00,52.9,50.9,29.85,SSE,157,0.0,0.0,93,0.00,,,0.00,WUHU21623XXSP,2013-01-29 15:37:00,
2013-01-29 10:42:00,52.9,50.9,29.85,SSE,157,0.0,0.0,93,0.00,,,0.00,WUHU21623XXSP,2013-01-29 15:42:00,
2013-01-29 10:47:00,52.9,50.9,29.84,SE,135,0.0,0.0,93,0.00,,,0.00,WUHU21623XXSP,2013-01-29 15:47:00,
2013-01-29 10:52:00,52.9,50.9,29.84,SSW,202,0.0,0.0,93,0.00,,,0.00,WUHU21623XXSP,2013-01-29 15:52:00,
2013-01-29 10:57:00,52.9,50.9,29.84,South,180,1.6,1.6,93,0.00,,,0.00,WUHU21623XXSP,2013-01-29 15:57:00,
2013-01-29 11:02:00,53.0,50.9,29.84,South,180,0.0,1.6,93,0.00,,,0.00,WUHU21623XXSP,2013-01-29 16:02:00,
2013-01-29 11:07:00,52.7,50.7,29.83,SSE,157,1.1,1.6,93,0.00,,,0.00,WUHU21623XXSP,2013-01-29 16:07:00,
2013-01-29 11:12:00,52.4,50.4,29.83,South,180,0.0,1.1,93,0.00,,,0.00,WUHU21623XXSP,2013-01-29 16:12:00,
2013-01-29 11:17:00,52.1,50.1,29.83,South,180,0.0,1.1,93,0.00,,,0.00,WUHU21623XXSP,2013-01-29 16:17:00,
2013-01-29 11:22:00,51.9,49.9,29.84,SSE,157,0.0,0.0,93,0.00,,,0.00,WUHU21623XXSP,2013-01-29 16:22:00,
2013-01-29 11:27:00,51.5,49.5,29.83,SSE,157,0.0,0.0,93,0.00,,,0.00,WUHU21623XXSP,2013-01-29 16:27:00,
2013-01-29 11:32:00,50.9,49.0,29.83,SSE,157,0.0,0.0,93,0.00,,,0.00,WUHU21623XXSP,2013-01-29 16:32:00,
2013-01-29 11:37:00,50.7,48.7,29.83,SSW,202,1.6,1.6,93,0.00,,,0.00,WUHU21623XXSP,2013-01-29 16:37:00,
2013-01-29 11:42:00,50.4,48.4,29.83,SSE,157,0.0,1.6,93,0.00,,,0.00,WUHU21623XXSP,2013-01-29 16:42:00,
2013-01-29 11:47:00,49.9,47.9,29.82,SSW,202,0.0,0.0,93,0.00,,,0.00,WUHU21623XXSP,2013-01-29 16:47:00,
2013-01-29 11:52:00,49.6,47.6,29.82,SSE,157,0.0,0.0,93,0.00,,,0.00,WUHU21623XXSP,2013-01-29 16:52:00,
2013-01-29 11:57:00,49.3,47.4,29.82,SSE,157,0.0,0.0,93,0.00,,,0.00,WUHU21623XXSP,2013-01-29 16:57:00,
2013-01-29 12:02:00,49.4,47.4,29.82,SE,135,0.0,0.0,93,0.00,,,0.00,WUHU21623XXSP,2013-01-29 17:02:00,
2013-01-29 12:07:00,48.8,46.9,29.82,South,180,2.6,3.1,93,0.00,,,0.00,WUHU21623XXSP,2013-01-29 17:07:00,
2013-01-29 12:12:00,48.6,46.6,29.82,WSW,247,6.9,6.9,93,0.00,,,0.00,WUHU21623XXSP,2013-01-29 17:12:00,
2013-01-29 12:17:00,48.3,46.4,29.81,East,90,0.0,6.9,93,0.00,,,0.00,WUHU21623XXSP,2013-01-29 17:17:00,
2013-01-29 12:22:00,48.1,46.1,29.82,SE,135,0.0,6.9,93,0.00,,,0.00,WUHU21623XXSP,2013-01-29 17:22:00,
2013-01-29 12:27:00,47.9,45.9,29.81,SW,225,3.4,3.4,93,0.00,,,0.00,WUHU21623XXSP,2013-01-29 17:27:00,
2013-01-29 12:32:00,47.9,45.9,29.81,SSW,202,0.0,3.4,93,0.00,,,0.00,WUHU21623XXSP,2013-01-29 17:32:00,
2013-01-29 12:37:00,47.6,45.7,29.81,WSW,247,0.9,3.4,93,0.00,,,0.00,WUHU21623XXSP,2013-01-29 17:37:00,
2013-01-29 12:42:00,47.5,45.5,29.81,SSW,202,2.5,2.5,93,0.00,,,0.00,WUHU21623XXSP,2013-01-29 17:42:00,
2013-01-29 12:47:00,47.6,45.6,29.80,SSW,202,4.3,4.3,93,0.00,,,0.00,WUHU21623XXSP,2013-01-29 17:47:00,
2013-01-29 12:52:00,47.4,45.4,29.79,NNW,329,3.0,5.6,93,0.00,,,0.00,WUHU21623XXSP,2013-01-29 17:52:00,
2013-01-29 12:57:00,47.4,45.5,29.79,SSW,202,2.7,5.6,93,0.00,,,0.00,WUHU21623XXSP,2013-01-29 17:57:00,
2013-01-29 13:02:00,47.3,45.3,29.79,SSW,202,1.8,2.7,93,0.00,,,0.00,WUHU21623XXSP,2013-01-29 18:02:00,
2013-01-29 13:07:00,47.1,45.1,29.79,SSW,202,3.1,3.1,93,0.00,,,0.00,WUHU21623XXSP,2013-01-29 18:07:00,
2013-01-29 13:12:00,47.0,45.0,29.78,SSE,157,0.0,3.1,93,0.00,,,0.00,WUHU21623XXSP,2013-01-29 18:12:00,
2013-01-29 13:17:00,46.9,44.9,29.78,SW,225,0.0,0.0,93,0.00,,,0.00,WUHU21623XXSP,2013-01-29 18:17:00,
2013-01-29 13:22:00,46.8,44.8,29.77,SSW,202,0.0,0.0,93,0.00,,,0.00,WUHU21623XXSP,2013-01-29 18:22:00,
2013-01-29 13:27:00,47.1,45.1,29.77,SSW,202,0.0,0.0,93,0.00,,,0.00,WUHU21623XXSP,2013-01-29 18:27:00,
2013-01-29 13:32:00,47.0,45.0,29.77,WSW,247,2.7,2.7,93,0.00,,,0.00,WUHU21623XXSP,2013-01-29 18:32:00,
2013-01-29 13:37:00,47.1,45.2,29.77,SW,225,2.0,2.7,93,0.00,,,0.00,WUHU21623XXSP,2013-01-29 18:37:00,
2013-01-29 13:42:00,47.2,45.2,29.76,SW,225,2.2,2.7,93,0.00,,,0.00,WUHU21623XXSP,2013-01-29 18:42:00,
2013-01-29 13:47:00,47.1,45.2,29.76,WSW,247,0.0,2.2,93,0.00,,,0.00,WUHU21623XXSP,2013-01-29 18:47:00,
2013-01-29 13:52:00,47.3,45.3,29.76,WSW,247,1.6,1.6,93,0.00,,,0.00,WUHU21623XXSP,2013-01-29 18:52:00,
2013-01-29 13:57:00,47.7,45.7,29.75,SW,225,4.3,6.3,93,0.00,,,0.00,WUHU21623XXSP,2013-01-29 18:57:00,
2013-01-29 14:02:00,48.2,46.2,29.75,WSW,248,4.5,6.3,93,0.00,,,0.00,WUHU21623XXSP,2013-01-29 19:02:00,
2013-01-29 14:07:00,48.2,46.2,29.75,WSW,247,3.8,4.9,93,0.00,,,0.00,WUHU21623XXSP,2013-01-29 19:07:00,
2013-01-29 14:12:00,48.8,46.9,29.75,WSW,247,3.6,3.8,93,0.00,,,0.00,WUHU21623XXSP,2013-01-29 19:12:00,
2013-01-29 14:18:00,49.0,47.0,29.75,SW,225,4.9,4.9,93,0.00,,,0.00,WUHU21623XXSP,2013-01-29 19:18:00,
2013-01-29 14:23:00,49.2,47.3,29.74,WSW,247,6.5,6.5,93,0.00,,,0.00,WUHU21623XXSP,2013-01-29 19:23:00,
2013-01-29 14:28:00,49.5,47.5,29.74,SW,225,5.8,6.5,93,0.00,,,0.00,WUHU21623XXSP,2013-01-29 19:28:00,
2013-01-29 14:33:00,49.8,47.8,29.74,SW,225,1.6,6.5,93,0.00,,,0.00,WUHU21623XXSP,2013-01-29 19:33:00,
2013-01-29 14:38:00,50.2,48.2,29.74,SSW,202,11.4,11.4,93,0.00,,,0.00,WUHU21623XXSP,2013-01-29 19:38:00,
2013-01-29 14:43:00,50.3,48.3,29.74,SW,225,8.1,11.4,93,0.00,,,0.00,WUHU21623XXSP,2013-01-29 19:43:00,
2013-01-29 14:48:00,50.6,48.6,29.73,South,189,7.9,11.4,93,0.00,,,0.00,WUHU21623XXSP,2013-01-29 19:48:00,
2013-01-29 14:53:00,50.7,48.5,29.73,West,270,4.5,11.4,92,0.00,,,0.00,WUHU21623XXSP,2013-01-29 19:53:00,
2013-01-29 14:58:00,51.3,49.0,29.74,WSW,247,7.4,7.4,92,0.00,,,0.00,WUHU21623XXSP,2013-01-29 19:58:00,
2013-01-29 14:59:00,51.1,48.8,29.73,SW,235,7.1,7.4,92,0.00,,,0.00,WUHU21623XXSP,2013-01-29 19:59:00,
2013-01-29 15:04:00,51.5,49.2,29.73,WSW,247,0.7,7.4,92,0.00,,,0.00,WUHU21623XXSP,2013-01-29 20:04:00,
2013-01-29 15:09:00,51.6,49.3,29.73,South,184,4.3,6.3,92,0.00,,,0.00,WUHU21623XXSP,2013-01-29 20:09:00,
2013-01-29 15:14:00,51.6,49.3,29.73,WSW,247,3.4,5.4,92,0.00,,,0.00,WUHU21623XXSP,2013-01-29 20:14:00,
2013-01-29 15:19:00,51.8,49.2,29.73,WSW,247,1.3,3.4,91,0.00,,,0.00,WUHU21623XXSP,2013-01-29 20:19:00,
2013-01-29 15:24:00,51.8,49.2,29.73,WSW,247,3.8,3.8,91,0.00,,,0.00,WUHU21623XXSP,2013-01-29 20:24:00,
2013-01-29 15:29:00,52.0,49.4,29.73,SSE,157,2.0,3.8,91,0.00,,,0.00,WUHU21623XXSP,2013-01-29 20:29:00,
2013-01-29 15:34:00,52.2,49.6,29.73,SSE,157,1.1,3.8,91,0.00,,,0.00,WUHU21623XXSP,2013-01-29 20:34:00,
2013-01-29 15:39:00,52.0,49.4,29.73,SSE,157,0.0,4.0,91,0.00,,,0.00,WUHU21623XXSP,2013-01-29 20:39:00,
2013-01-29 15:44:00,52.2,49.6,29.74,SSE,157,1.1,4.0,91,0.00,,,0.00,WUHU21623XXSP,2013-01-29 20:44:00,
2013-01-29 15:49:00,52.0,49.5,29.73,SSE,157,0.0,1.1,91,0.00,,,0.00,WUHU21623XXSP,2013-01-29 20:49:00,
2013-01-29 15:54:00,52.1,49.5,29.73,SE,135,2.7,2.7,91,0.00,,,0.00,WUHU21623XXSP,2013-01-29 20:54:00,
2013-01-29 15:59:00,52.2,49.7,29.72,South,180,0.0,2.7,91,0.00,,,0.00,WUHU21623XXSP,2013-01-29 20:59:00,
2013-01-29 16:04:00,52.5,49.6,29.72,SSE,157,0.7,2.7,90,0.00,,,0.00,WUHU21623XXSP,2013-01-29 21:04:00,
2013-01-29 16:09:00,52.6,49.7,29.72,SSE,157,1.6,1.6,90,0.00,,,0.00,WUHU21623XXSP,2013-01-29 21:09:00,
2013-01-29 16:14:00,52.9,50.3,29.72,SSE,157,0.0,1.6,91,0.00,,,0.00,WUHU21623XXSP,2013-01-29 21:14:00,
2013-01-29 16:19:00,53.1,50.5,29.71,ESE,112,0.0,0.0,91,0.00,,,0.00,WUHU21623XXSP,2013-01-29 21:19:00,
2013-01-29 16:24:00,53.4,50.8,29.71,SSE,157,4.7,4.7,91,0.00,,,0.00,WUHU21623XXSP,2013-01-29 21:24:00,
2013-01-29 16:29:00,53.5,50.9,29.71,SSE,157,2.2,4.7,91,0.00,,,0.00,WUHU21623XXSP,2013-01-29 21:29:00,
2013-01-29 16:34:00,53.6,51.0,29.71,SSE,157,0.0,6.3,91,0.00,,,0.00,WUHU21623XXSP,2013-01-29 21:34:00,
2013-01-29 16:39:00,53.9,51.3,29.71,SE,141,3.7,6.3,91,0.00,,,0.00,WUHU21623XXSP,2013-01-29 21:39:00,
2013-01-29 16:44:00,54.2,51.6,29.71,West,270,1.8,4.3,91,0.00,,,0.00,WUHU21623XXSP,2013-01-29 21:44:00,
2013-01-29 16:49:00,54.5,51.9,29.71,SSE,157,0.0,1.8,91,0.00,,,0.00,WUHU21623XXSP,2013-01-29 21:49:00,
2013-01-29 16:54:00,54.8,52.2,29.70,SSE,159,5.0,5.8,91,0.00,,,0.00,WUHU21623XXSP,2013-01-29 21:54:00,
2013-01-29 16:59:00,55.1,52.5,29.70,ESE,112,1.6,5.8,91,0.00,,,0.00,WUHU21623XXSP,2013-01-29 21:59:00,
2013-01-29 17:04:00,55.2,52.6,29.69,SSE,157,4.7,4.7,91,0.00,,,0.00,WUHU21623XXSP,2013-01-29 22:04:00,
2013-01-29 17:09:00,55.4,52.8,29.71,SSE,157,6.5,6.5,91,0.00,,,0.00,WUHU21623XXSP,2013-01-29 22:09:00,
2013-01-29 17:14:00,55.2,52.6,29.72,SSE,157,6.5,6.5,91,0.00,,,0.00,WUHU21623XXSP,2013-01-29 22:14:00,
2013-01-29 17:19:00,55.2,52.6,29.70,SSE,157,3.6,6.5,91,0.00,,,0.00,WUHU21623XXSP,2013-01-29 22:19:00,
2013-01-29 17:24:00,55.2,52.6,29.70,SSW,202,2.0,6.5,91,0.00,,,0.00,WUHU21623XXSP,2013-01-29 22:24:00,
2013-01-29 17:29:00,55.2,52.6,29.70,West,270,0.0,5.4,91,0.00,,,0.00,WUHU21623XXSP,2013-01-29 22:29:00,
2013-01-29 17:34:00,55.2,52.6,29.69,South,180,0.0,2.0,91,0.00,,,0.00,WUHU21623XXSP,2013-01-29 22:34:00,
2013-01-29 17:39:00,55.2,52.6,29.69,SW,225,0.0,0.0,91,0.00,,,0.00,WUHU21623XXSP,2013-01-29 22:39:00,
2013-01-29 17:44:00,55.2,52.6,29.69,SSE,157,1.8,2.0,91,0.00,,,0.00,WUHU21623XXSP,2013-01-29 22:44:00,
2013-01-29 17:49:00,55.2,52.6,29.68,SSE,157,2.0,2.0,91,0.00,,,0.00,WUHU21623XXSP,2013-01-29 22:49:00,
2013-01-29 17:54:00,55.2,52.3,29.68,ESE,112,7.4,7.4,90,0.00,,,0.00,WUHU21623XXSP,2013-01-29 22:54:00,
2013-01-29 17:59:00,55.2,52.3,29.68,SE,135,0.0,7.4,90,0.00,,,0.00,WUHU21623XXSP,2013-01-29 22:59:00,
2013-01-29 18:04:00,55.2,52.3,29.68,WSW,247,0.0,7.4,90,0.00,,,0.00,WUHU21623XXSP,2013-01-29 23:04:00,
2013-01-29 18:09:00,55.2,52.3,29.67,SSW,202,0.0,0.0,90,0.00,,,0.00,WUHU21623XXSP,2013-01-29 23:09:00,
2013-01-29 18:14:00,55.2,52.3,29.68,SSE,157,6.3,6.3,90,0.00,,,0.00,WUHU21623XXSP,2013-01-29 23:14:00,
2013-01-29 18:19:00,55.2,52.3,29.68,South,180,0.2,6.3,90,0.00,,,0.00,WUHU21623XXSP,2013-01-29 23:19:00,
2013-01-29 18:24:00,55.2,52.3,29.67,SE,135,0.0,0.2,90,0.00,,,0.00,WUHU21623XXSP,2013-01-29 23:24:00,
2013-01-29 18:29:00,55.2,52.3,29.67,South,180,0.0,0.0,90,0.00,,,0.00,WUHU21623XXSP,2013-01-29 23:29:00,
2013-01-29 18:34:00,55.2,52.3,29.67,SSE,157,6.5,6.5,90,0.00,,,0.00,WUHU21623XXSP,2013-01-29 23:34:00,
2013-01-29 18:39:00,55.2,52.3,29.67,SE,135,8.7,8.7,90,0.00,,,0.00,WUHU21623XXSP,2013-01-29 23:39:00,
2013-01-29 18:44:00,55.2,52.3,29.66,SSE,152,1.5,8.7,90,0.00,,,0.00,WUHU21623XXSP,2013-01-29 23:44:00,
2013-01-29 18:49:00,55.2,52.3,29.66,SSE,157,8.3,8.3,90,0.00,,,0.00,WUHU21623XXSP,2013-01-29 23:49:00,
2013-01-29 18:54:00,55.2,52.3,29.66,SE,135,5.6,8.3,90,0.00,,,0.00,WUHU21623XXSP,2013-01-29 23:54:00,
2013-01-29 18:59:00,55.2,52.3,29.66,SSE,157,2.8,8.3,90,0.00,,,0.00,WUHU21623XXSP,2013-01-29 23:59:00,
2013-01-29 19:04:00,55.2,52.3,29.65,SSW,202,6.9,6.9,90,0.00,,,0.00,WUHU21623XXSP,2013-01-30 00:04:00,
2013-01-29 19:09:00,55.4,52.5,29.65,SSW,202,6.9,6.9,90,0.00,,,0.00,WUHU21623XXSP,2013-01-30 00:09:00,
2013-01-29 19:14:00,55.4,52.5,29.65,SSE,157,1.2,6.9,90,0.00,,,0.00,WUHU21623XXSP,2013-01-30 00:14:00,
2013-01-29 19:19:00,55.6,52.7,29.64,SSE,157,3.4,6.9,90,0.00,,,0.00,WUHU21623XXSP,2013-01-30 00:19:00,
2013-01-29 19:24:00,55.6,52.7,29.64,SSE,157,5.6,5.6,90,0.00,,,0.00,WUHU21623XXSP,2013-01-30 00:24:00,
2013-01-29 19:29:00,55.6,52.4,29.64,SSE,157,6.5,6.5,89,0.00,,,0.00,WUHU21623XXSP,2013-01-30 00:29:00,
2013-01-29 19:34:00,55.6,52.4,29.64,NNW,337,0.0,6.5,89,0.00,,,0.00,WUHU21623XXSP,2013-01-30 00:34:00,
2013-01-29 19:39:00,55.6,52.4,29.63,SE,146,6.4,12.8,89,0.00,,,0.00,WUHU21623XXSP,2013-01-30 00:39:00,
2013-01-29 19:44:00,55.6,52.4,29.62,ESE,112,4.3,12.8,89,0.00,,,0.00,WUHU21623XXSP,2013-01-30 00:44:00,
2013-01-29 19:49:00,55.6,52.4,29.62,SSE,157,13.0,13.0,89,0.00,,,0.00,WUHU21623XXSP,2013-01-30 00:49:00,
2013-01-29 19:54:00,55.6,52.4,29.62,SSE,157,13.0,13.0,89,0.00,,,0.00,WUHU21623XXSP,2013-01-30 00:54:00,
2013-01-29 19:59:00,55.6,52.4,29.61,SE,135,4.5,13.0,89,0.00,,,0.00,WUHU21623XXSP,2013-01-30 00:59:00,
2013-01-29 20:04:00,55.8,52.6,29.61,SSE,150,6.4,13.0,89,0.00,,,0.00,WUHU21623XXSP,2013-01-30 01:04:00,
2013-01-29 20:09:00,55.6,52.4,29.61,SSE,157,1.8,6.7,89,0.00,,,0.00,WUHU21623XXSP,2013-01-30 01:09:00,
2013-01-29 20:20:00,55.6,52.4,29.60,SSE,157,1.8,6.7,89,0.00,,,0.00,WUHU21623XXSP,2013-01-30 01:20:00,
2013-01-29 20:25:00,55.8,52.6,29.59,SSE,157,6.5,6.5,89,0.00,,,0.00,WUHU21623XXSP,2013-01-30 01:25:00,
2013-01-29 20:30:00,55.9,52.7,29.59,East,90,2.9,7.6,89,0.00,,,0.00,WUHU21623XXSP,2013-01-30 01:30:00,
2013-01-29 20:35:00,55.9,52.7,29.59,ESE,112,5.1,7.6,89,0.00,,,0.00,WUHU21623XXSP,2013-01-30 01:35:00,
2013-01-29 20:40:00,55.9,52.7,29.59,SSE,157,0.0,5.1,89,0.00,,,0.00,WUHU21623XXSP,2013-01-30 01:40:00,
2013-01-29 20:45:00,55.9,52.7,29.59,SSE,157,7.9,11.6,89,0.00,,,0.00,WUHU21623XXSP,2013-01-30 01:45:00,
2013-01-29 20:50:00,55.9,52.7,29.58,SSE,157,4.3,11.6,89,0.00,,,0.00,WUHU21623XXSP,2013-01-30 01:50:00,
2013-01-29 20:55:00,55.9,52.7,29.58,SSE,157,1.8,4.3,89,0.00,,,0.00,WUHU21623XXSP,2013-01-30 01:55:00,
2013-01-29 21:00:00,56.1,52.9,29.58,SE,135,1.6,4.3,89,0.00,,,0.00,WUHU21623XXSP,2013-01-30 02:00:00,
2013-01-29 21:05:00,55.9,52.7,29.57,South,180,5.6,5.6,89,0.00,,,0.00,WUHU21623XXSP,2013-01-30 02:05:00,
2013-01-29 21:10:00,56.1,52.9,29.57,WSW,247,5.8,5.8,89,0.00,,,0.00,WUHU21623XXSP,2013-01-30 02:10:00,
2013-01-29 21:15:00,56.1,52.9,29.57,SE,135,6.3,6.3,89,0.00,,,0.00,WUHU21623XXSP,2013-01-30 02:15:00,
2013-01-29 21:20:00,56.3,53.1,29.56,SSE,150,5.5,6.3,89,0.00,,,0.00,WUHU21623XXSP,2013-01-30 02:20:00,
2013-01-29 21:25:00,56.3,53.1,29.56,SSE,157,8.7,8.7,89,0.00,,,0.00,WUHU21623XXSP,2013-01-30 02:25:00,
2013-01-29 21:30:00,56.3,53.1,29.56,South,180,3.9,8.7,89,0.00,,,0.00,WUHU21623XXSP,2013-01-30 02:30:00,
2013-01-29 21:35:00,56.3,53.1,29.55,WNW,292,2.5,8.7,89,0.00,,,0.00,WUHU21623XXSP,2013-01-30 02:35:00,
2013-01-29 21:40:00,56.3,53.1,29.55,NNW,337,0.2,2.5,89,0.00,,,0.00,WUHU21623XXSP,2013-01-30 02:40:00,
2013-01-29 21:45:00,56.5,53.3,29.55,SE,135,8.3,10.5,89,0.00,,,0.00,WUHU21623XXSP,2013-01-30 02:45:00,
2013-01-29 21:50:00,56.5,53.3,29.55,SSE,157,4.0,10.5,89,0.00,,,0.00,WUHU21623XXSP,2013-01-30 02:50:00,
2013-01-29 21:55:00,56.5,53.3,29.54,SE,135,16.1,16.1,89,0.00,,,0.00,WUHU21623XXSP,2013-01-30 02:55:00,
2013-01-29 22:00:00,56.5,53.3,29.53,SE,135,0.2,16.1,89,0.00,,,0.00,WUHU21623XXSP,2013-01-30 03:00:00,
2013-01-29 22:05:00,56.7,53.5,29.52,SSE,157,7.6,16.1,89,0.00,,,0.00,WUHU21623XXSP,2013-01-30 03:05:00,
2013-01-29 22:10:00,56.8,53.6,29.52,SE,135,0.9,8.3,89,0.00,,,0.00,WUHU21623XXSP,2013-01-30 03:10:00,
2013-01-29 22:15:00,56.8,53.6,29.51,SSW,202,4.9,7.4,89,0.00,,,0.00,WUHU21623XXSP,2013-01-30 03:15:00,
2013-01-29 22:20:00,56.8,53.6,29.51,SSE,157,9.2,9.2,89,0.00,,,0.00,WUHU21623XXSP,2013-01-30 03:20:00,
2013-01-29 22:25:00,57.0,53.8,29.51,SE,135,5.4,9.2,89,0.00,,,0.00,WUHU21623XXSP,2013-01-30 03:25:00,
2013-01-29 22:30:00,57.0,53.8,29.50,SSE,157,3.6,9.2,89,0.00,,,0.00,WUHU21623XXSP,2013-01-30 03:30:00,
2013-01-29 22:35:00,57.0,53.8,29.49,SSE,157,3.6,3.6,89,0.00,,,0.00,WUHU21623XXSP,2013-01-30 03:35:00,
2013-01-29 22:40:00,57.4,54.2,29.49,SSE,157,3.6,3.6,89,0.00,,,0.00,WUHU21623XXSP,2013-01-30 03:40:00,
2013-01-29 22:45:00,57.4,54.2,29.48,NE,45,4.9,4.9,89,0.00,,,0.00,WUHU21623XXSP,2013-01-30 03:45:00,
2013-01-29 22:50:00,57.4,54.2,29.48,SE,135,15.9,15.9,89,0.00,,,0.00,WUHU21623XXSP,2013-01-30 03:50:00,
2013-01-29 22:55:00,57.6,54.4,29.47,South,180,1.8,15.9,89,0.00,,,0.00,WUHU21623XXSP,2013-01-30 03:55:00,
2013-01-29 23:00:00,57.7,54.5,29.46,SE,135,8.5,15.9,89,0.00,,,0.00,WUHU21623XXSP,2013-01-30 04:00:00,
2013-01-29 23:05:00,57.7,54.5,29.46,SE,135,7.2,13.2,89,0.00,,,0.00,WUHU21623XXSP,2013-01-30 04:05:00,
2013-01-29 23:10:00,57.9,54.7,29.45,SE,137,4.6,13.2,89,0.00,,,0.00,WUHU21623XXSP,2013-01-30 04:10:00,
2013-01-29 23:15:00,57.9,54.7,29.45,SSE,157,8.1,8.1,89,0.00,,,0.00,WUHU21623XXSP,2013-01-30 04:15:00,
2013-01-29 23:20:00,57.9,54.7,29.45,ESE,112,6.3,8.1,89,0.00,,,0.00,WUHU21623XXSP,2013-01-30 04:20:00,
2013-01-29 23:25:00,57.9,54.7,29.44,ESE,112,6.3,8.1,89,0.00,,,0.00,WUHU21623XXSP,2013-01-30 04:25:00,
2013-01-29 23:30:00,58.1,54.6,29.44,SE,135,4.3,6.3,88,0.00,,,0.00,WUHU21623XXSP,2013-01-30 04:30:00,
2013-01-29 23:35:00,58.1,54.6,29.44,SSE,157,0.7,4.3,88,0.00,,,0.00,WUHU21623XXSP,2013-01-30 04:35:00,
2013-01-29 23:40:00,58.1,54.6,29.44,SSE,157,5.4,5.4,88,0.00,,,0.00,WUHU21623XXSP,2013-01-30 04:40:00,
2013-01-29 23:45:00,58.3,54.8,29.43,NNW,337,15.4,15.4,88,0.00,,,0.00,WUHU21623XXSP,2013-01-30 04:45:00,
2013-01-29 23:50:00,58.3,54.8,29.42,NNW,337,15.4,15.4,88,0.00,,,0.00,WUHU21623XXSP,2013-01-30 04:50:00,
2013-01-29 23:55:00,58.5,54.9,29.42,ESE,112,3.1,15.4,88,0.00,,,0.00,WUHU21623XXSP,2013-01-30 04:55:00,